QPF
0.08 0.06 0.04 0.03 0.03 0.04 0.03 0.04 0.06 0.09 0.12 0.15 0.15 0.12 0.09 0.05 0.02 0.01 0.01 0.01 0.02 0.03 0.07 0.12 0.15 0.16 0.15 0.14 0.10 0.05 0.03 0.01 0.00 0.00 0.00 0.00 0.00 0.00 0.00 0.00 0.00 0.00 0.00
0.04 0.04 0.03 0.02 0.03 0.03 0.02 0.02 0.02 0.04 0.07 0.09 0.10 0.10 0.08 0.06 0.03 0.02 0.02 0.02 0.03 0.05 0.07 0.10 0.14 0.16 0.16 0.16 0.13 0.10 0.06 0.04 0.02 0.01 0.00 0.00 0.00 0.00 0.00 0.00 0.00 0.00 0.00
0.02 0.02 0.02 0.02 0.02 0.01 0.01 0.00 0.00 0.01 0.02 0.04 0.06 0.08 0.10 0.10 0.07 0.05 0.04 0.04 0.04 0.05 0.09 0.10 0.11 0.14 0.15 0.17 0.15 0.12 0.10 0.07 0.06 0.04 0.01 0.01 0.00 0.01 0.01 0.00 0.00 0.00 0.00
0.01 0.01 0.01 0.01 0.00 0.00 0.00 0.00 0.00 0.00 0.01 0.02 0.04 0.07 0.10 0.12 0.10 0.08 0.07 0.06 0.06 0.05 0.08 0.12 0.13 0.13 0.16 0.20 0.18 0.15 0.12 0.09 0.07 0.05 0.04 0.03 0.02 0.02 0.01 0.01 0.01 0.00 0.00
0.00 0.00 0.00 0.00 0.00 0.00 0.00 0.00 0.00 0.00 0.01 0.02 0.03 0.06 0.09 0.11 0.11 0.10 0.09 0.07 0.06 0.07 0.08 0.12 0.17 0.17 0.22 0.25 0.25 0.24 0.19 0.11 0.08 0.06 0.05 0.05 0.04 0.03 0.03 0.03 0.03 0.02 0.00
0.00 0.00 0.00 0.00 0.00 0.00 0.00 0.00 0.00 0.00 0.00 0.02 0.04 0.06 0.09 0.11 0.11 0.10 0.09 0.09 0.09 0.07 0.07 0.09 0.13 0.15 0.21 0.27 0.28 0.29 0.24 0.17 0.11 0.08 0.06 0.05 0.06 0.05 0.05 0.05 0.06 0.05 0.03
0.00 0.00 0.00 0.00 0.00 0.00 0.00 0.00 0.00 0.00 0.00 0.02 0.04 0.07 0.10 0.13 0.14 0.12 0.12 0.11 0.10 0.08 0.09 0.09 0.10 0.11 0.11 0.17 0.21 0.23 0.24 0.23 0.17 0.11 0.07 0.05 0.06 0.06 0.05 0.05 0.07 0.08 0.07
0.00 0.00 0.00 0.00 0.00 0.00 0.00 0.00 0.00 0.00 0.00 0.02 0.04 0.07 0.10 0.11 0.13 0.13 0.14 0.14 0.12 0.11 0.09 0.07 0.08 0.10 0.10 0.11 0.12 0.15 0.19 0.22 0.22 0.17 0.11 0.07 0.06 0.07 0.06 0.06 0.06 0.07 0.08
0.00 0.00 0.00 0.00 0.00 0.00 0.00 0.00 0.00 0.00 0.00 0.01 0.05 0.08 0.10 0.11 0.11 0.09 0.08 0.09 0.11 0.11 0.10 0.08 0.06 0.07 0.09 0.10 0.10 0.12 0.17 0.19 0.22 0.24 0.19 0.12 0.07 0.06 0.06 0.05 0.05 0.04 0.05
0.00 0.00 0.00 0.00 0.00 0.00 0.00 0.00 0.00 0.00 0.00 0.01 0.03 0.06 0.07 0.08 0.11 0.12 0.09 0.08 0.08 0.09 0.09 0.09 0.06 0.05 0.07 0.07 0.06 0.06 0.08 0.12 0.17 0.22 0.22 0.19 0.13 0.06 0.04 0.05 0.07 0.06 0.05
0.00 0.00 0.00 0.00 0.00 0.00 0.00 0.00 0.00 0.00 0.00 0.00 0.01 0.03 0.04 0.05 0.07 0.10 0.10 0.08 0.07 0.07 0.07 0.07 0.07 0.07 0.07 0.08 0.06 0.05 0.05 0.08 0.11 0.14 0.17 0.17 0.15 0.09 0.04 0.06 0.09 0.10 0.07
0.00 0.00 0.00 0.00 0.00 0.00 0.00 0.00 0.00 0.00 0.00 0.00 0.00 0.01 0.02 0.03 0.05 0.07 0.07 0.07 0.06 0.05 0.06 0.06 0.06 0.06 0.07 0.07 0.06 0.04 0.06 0.08 0.09 0.08 0.08 0.09 0.11 0.10 0.07 0.07 0.10 0.11 0.10
0.00 0.00 0.00 0.00 0.00 0.00 0.00 0.00 0.00 0.00 0.00 0.00 0.00 0.00 0.01 0.01 0.02 0.04 0.05 0.05 0.04 0.04 0.05 0.06 0.05 0.05 0.07 0.07 0.06 0.06 0.07 0.10 0.09 0.07 0.05 0.04 0.05 0.05 0.05 0.06 0.08 0.10 0.10
0.00 0.00 0.00 0.00 0.00 0.00 0.00 0.00 0.00 0.00 0.00 0.00 0.00 0.00 0.00 0.01 0.01 0.02 0.04 0.07 0.08 0.06 0.05 0.05 0.05 0.05 0.05 0.05 0.07 0.08 0.08 0.09 0.08 0.07 0.06 0.04 0.03 0.03 0.02 0.02 0.03 0.04 0.04
0.00 0.00 0.00 0.00 0.00 0.00 0.00 0.00 0.00 0.00 0.00 0.00 0.00 0.00 0.00 0.00 0.01 0.02 0.03 0.06 0.10 0.11 0.08 0.07 0.08 0.07 0.06 0.07 0.07 0.07 0.07 0.08 0.07 0.06 0.05 0.04 0.03 0.02 0.02 0.01 0.01 0.01 0.01
0.00 0.00 0.00 0.00 0.00 0.00 0.00 0.00 0.00 0.00 0.00 0.00 0.00 0.00 0.00 0.00 0.00 0.01 0.02 0.03 0.07 0.10 0.11 0.10 0.12 0.12 0.09 0.09 0.09 0.08 0.07 0.08 0.07 0.05 0.04 0.03 0.02 0.02 0.01 0.01 0.00 0.00 0.00
0.00 0.00 0.00 0.00 0.00 0.00 0.00 0.00 0.00 0.00 0.00 0.00 0.00 0.00 0.00 0.00 0.00 0.00 0.00 0.02 0.04 0.07 0.10 0.11 0.13 0.17 0.15 0.12 0.12 0.10 0.09 0.09 0.07 0.05 0.03 0.02 0.02 0.01 0.01 0.01 0.00 0.00 0.00
0.00 0.00 0.00 0.00 0.00 0.00 0.00 0.00 0.00 0.00 0.00 0.00 0.00 0.00 0.00 0.00 0.00 0.00 0.00 0.01 0.02 0.04 0.07 0.09 0.13 0.20 0.20 0.18 0.16 0.13 0.10 0.09 0.07 0.06 0.04 0.02 0.01 0.01 0.00 0.00 0.00 0.00 0.00
0.00 0.00 0.00 0.00 0.00 0.00 0.00 0.00 0.00 0.00 0.00 0.00 0.00 0.00 0.00 0.00 0.00 0.00 0.00 0.00 0.01 0.02 0.05 0.08 0.10 0.16 0.22 0.24 0.21 0.16 0.12 0.09 0.07 0.06 0.04 0.02 0.01 0.01 0.00 0.00 0.00 0.00 0.00
0.00 0.00 0.00 0.00 0.00 0.00 0.00 0.00 0.00 0.00 0.00 0.00 0.00 0.00 0.00 0.00 0.00 0.00 0.00 0.00 0.00 0.01 0.03 0.06 0.09 0.14 0.22 0.25 0.24 0.19 0.13 0.08 0.06 0.04 0.04 0.03 0.02 0.01 0.00 0.00 0.00 0.00 0.00
0.00 0.00 0.00 0.00 0.00 0.00 0.00 0.00 0.00 0.00 0.00 0.00 0.00 0.00 0.00 0.00 0.00 0.00 0.00 0.00 0.00 0.00 0.01 0.03 0.07 0.13 0.21 0.24 0.23 0.19 0.15 0.10 0.05 0.04 0.03 0.02 0.01 0.01 0.00 0.00 0.01 0.01 0.01
0.00 0.00 0.00 0.00 0.00 0.00 0.00 0.00 0.00 0.00 0.00 0.00 0.00 0.00 0.00 0.00 0.00 0.00 0.00 0.00 0.00 0.00 0.00 0.02 0.05 0.09 0.18 0.24 0.26 0.26 0.19 0.10 0.05 0.03 0.02 0.02 0.01 0.01 0.00 0.00 0.01 0.01 0.01
0.00 0.00 0.00 0.00 0.00 0.00 0.00 0.00 0.00 0.00 0.00 0.00 0.00 0.00 0.00 0.00 0.00 0.00 0.00 0.01 0.00 0.00 0.00 0.01 0.02 0.06 0.14 0.26 0.31 0.28 0.21 0.15 0.08 0.03 0.01 0.01 0.02 0.01 0.01 0.01 0.02 0.01 0.01
0.00 0.00 0.00 0.00 0.00 0.00 0.00 0.00 0.00 0.00 0.00 0.00 0.00 0.00 0.00 0.00 0.00 0.00 0.00 0.00 0.00 0.00 0.00 0.00 0.01 0.03 0.10 0.24 0.37 0.39 0.33 0.26 0.15 0.06 0.02 0.01 0.02 0.02 0.01 0.01 0.03 0.02 0.02
0.00 0.00 0.00 0.00 0.00 0.00 0.00 0.00 0.00 0.00 0.00 0.00 0.00 0.00 0.00 0.00 0.00 0.00 0.00 0.00 0.00 0.00 0.00 0.00 0.00 0.02 0.07 0.18 0.34 0.50 0.46 0.32 0.19 0.09 0.03 0.01 0.01 0.01 0.02 0.02 0.03 0.04 0.04
0.00 0.00 0.00 0.00 0.00 0.00 0.00 0.00 0.00 0.00 0.00 0.00 0.00 0.00 0.00 0.00 0.00 0.01 0.01 0.00 0.01 0.01 0.01 0.01 0.01 0.01 0.04 0.10 0.23 0.39 0.50 0.38 0.23 0.12 0.05 0.01 0.01 0.00 0.01 0.02 0.01 0.02 0.02
MSLP
1015.82 1015.72 1015.58 1015.43 1015.29 1015.20 1015.15 1015.14 1015.14 1015.13 1015.09 1015.01 1014.90 1014.78 1014.69 1014.65 1014.68 1014.82 1015.03 1015.32 1015.65 1016.00 1016.35 1016.68 1017.01 1017.32 1017.63 1017.96 1018.29 1018.64 1018.99 1019.34 1019.68 1020.01 1020.33 1020.65 1020.97 1021.30 1021.64 1021.99 1022.34 1022.68 1023.01
1015.74 1015.58 1015.40 1015.23 1015.10 1015.01 1014.97 1014.96 1014.95 1014.91 1014.84 1014.71 1014.53 1014.34 1014.16 1014.03 1013.99 1014.05 1014.21 1014.46 1014.78 1015.14 1015.53 1015.92 1016.31 1016.68 1017.05 1017.41 1017.77 1018.14 1018.50 1018.87 1019.23 1019.60 1019.96 1020.33 1020.70 1021.08 1021.46 1021.83 1022.19 1022.54 1022.87
1015.62 1015.42 1015.22 1015.06 1014.94 1014.87 1014.84 1014.83 1014.81 1014.75 1014.63 1014.43 1014.19 1013.91 1013.64 1013.42 1013.29 1013.26 1013.35 1013.55 1013.85 1014.21 1014.62 1015.06 1015.49 1015.92 1016.33 1016.73 1017.12 1017.50 1017.88 1018.27 1018.66 1019.06 1019.47 1019.89 1020.33 1020.76 1021.19 1021.60 1021.99 1022.35 1022.69
1015.50 1015.27 1015.08 1014.93 1014.84 1014.81 1014.80 1014.79 1014.74 1014.64 1014.45 1014.19 1013.86 1013.50 1013.14 1012.83 1012.61 1012.50 1012.52 1012.67 1012.93 1013.28 1013.70 1014.16 1014.63 1015.10 1015.55 1015.97 1016.38 1016.78 1017.17 1017.57 1017.98 1018.41 1018.87 1019.36 1019.85 1020.35 1020.83 1021.28 1021.70 1022.09 1022.44
1015.38 1015.15 1014.98 1014.87 1014.82 1014.81 1014.81 1014.79 1014.71 1014.55 1014.30 1013.96 1013.55 1013.11 1012.67 1012.29 1011.99 1011.82 1011.78 1011.87 1012.09 1012.43 1012.84 1013.30 1013.79 1014.28 1014.75 1015.19 1015.61 1016.01 1016.41 1016.81 1017.24 1017.71 1018.21 1018.74 1019.29 1019.84 1020.37 1020.87 1021.33 1021.74 1022.11
1015.30 1015.08 1014.94 1014.87 1014.86 1014.87 1014.87 1014.82 1014.69 1014.46 1014.14 1013.73 1013.25 1012.75 1012.27 1011.84 1011.49 1011.27 1011.18 1011.23 1011.41 1011.71 1012.10 1012.56 1013.04 1013.53 1014.00 1014.45 1014.87 1015.26 1015.65 1016.06 1016.49 1016.97 1017.50 1018.07 1018.66 1019.26 1019.83 1020.37 1020.86 1021.29 1021.68
1015.26 1015.05 1014.94 1014.91 1014.92 1014.94 1014.92 1014.83 1014.65 1014.36 1013.97 1013.50 1012.99 1012.46 1011.96 1011.51 1011.15 1010.90 1010.78 1010.80 1010.94 1011.19 1011.54 1011.96 1012.41 1012.88 1013.34 1013.77 1014.17 1014.55 1014.93 1015.32 1015.75 1016.24 1016.78 1017.37 1017.99 1018.61 1019.22 1019.79 1020.30 1020.75 1021.16
1015.26 1015.07 1014.99 1014.98 1015.00 1015.00 1014.95 1014.82 1014.58 1014.23 1013.80 1013.31 1012.79 1012.27 1011.78 1011.35 1011.00 1010.75 1010.61 1010.59 1010.68 1010.87 1011.16 1011.52 1011.92 1012.34 1012.75 1013.14 1013.51 1013.87 1014.23 1014.60 1015.03 1015.51 1016.05 1016.64 1017.28 1017.92 1018.54 1019.13 1019.65 1020.12 1020.54
1015.29 1015.13 1015.05 1015.05 1015.06 1015.04 1014.95 1014.77 1014.49 1014.11 1013.67 1013.18 1012.69 1012.21 1011.77 1011.38 1011.06 1010.82 1010.66 1010.59 1010.62 1010.73 1010.94 1011.21 1011.52 1011.87 1012.22 1012.56 1012.89 1013.20 1013.53 1013.89 1014.29 1014.76 1015.30 1015.89 1016.53 1017.18 1017.81 1018.40 1018.94 1019.42 1019.86
1015.36 1015.20 1015.13 1015.11 1015.10 1015.04 1014.92 1014.70 1014.40 1014.01 1013.59 1013.14 1012.70 1012.29 1011.92 1011.59 1011.30 1011.06 1010.88 1010.76 1010.71 1010.73 1010.82 1010.98 1011.19 1011.44 1011.71 1011.98 1012.25 1012.52 1012.81 1013.14 1013.53 1013.98 1014.51 1015.10 1015.74 1016.39 1017.03 1017.63 1018.18 1018.67 1019.12
1015.43 1015.28 1015.21 1015.17 1015.12 1015.03 1014.87 1014.63 1014.32 1013.96 1013.57 1013.19 1012.83 1012.50 1012.20 1011.93 1011.67 1011.43 1011.22 1011.03 1010.88 1010.79 1010.76 1010.79 1010.88 1011.02 1011.19 1011.38 1011.59 1011.81 1012.06 1012.36 1012.73 1013.17 1013.69 1014.28 1014.92 1015.57 1016.22 1016.83 1017.39 1017.90 1018.36
1015.50 1015.36 1015.26 1015.19 1015.11 1014.99 1014.80 1014.56 1014.26 1013.94 1013.62 1013.31 1013.04 1012.79 1012.56 1012.33 1012.09 1011.84 1011.57 1011.31 1011.06 1010.85 1010.70 1010.61 1010.58 1010.60 1010.68 1010.78 1010.92 1011.08 1011.30 1011.57 1011.91 1012.34 1012.86 1013.44 1014.08 1014.74 1015.40 1016.02 1016.60 1017.12 1017.60
1015.53 1015.39 1015.28 1015.18 1015.06 1014.91 1014.71 1014.47 1014.21 1013.94 1013.68 1013.45 1013.25 1013.07 1012.89 1012.70 1012.46 1012.19 1011.87 1011.54 1011.20 1010.89 1010.62 1010.42 1010.28 1010.21 1010.19 1010.22 1010.29 1010.40 1010.57 1010.81 1011.13 1011.55 1012.06 1012.64 1013.28 1013.94 1014.61 1015.24 1015.83 1016.37 1016.86
1015.49 1015.35 1015.22 1015.10 1014.95 1014.78 1014.58 1014.35 1014.11 1013.89 1013.70 1013.53 1013.39 1013.26 1013.12 1012.94 1012.70 1012.41 1012.05 1011.66 1011.26 1010.88 1010.53 1010.25 1010.03 1009.88 1009.79 1009.75 1009.76 1009.83 1009.96 1010.16 1010.46 1010.86 1011.35 1011.93 1012.56 1013.22 1013.89 1014.52 1015.12 1015.66 1016.17
1015.34 1015.20 1015.06 1014.92 1014.75 1014.57 1014.36 1014.15 1013.94 1013.76 1013.61 1013.49 1013.39 1013.29 1013.17 1012.99 1012.75 1012.44 1012.07 1011.66 1011.24 1010.82 1010.45 1010.13 1009.87 1009.67 1009.54 1009.45 1009.42 1009.44 1009.53 1009.70 1009.97 1010.35 1010.82 1011.37 1011.98 1012.63 1013.28 1013.90 1014.49 1015.03 1015.54
1015.07 1014.93 1014.79 1014.62 1014.45 1014.25 1014.05 1013.84 1013.66 1013.50 1013.37 1013.28 1013.20 1013.11 1012.99 1012.83 1012.60 1012.30 1011.94 1011.55 1011.14 1010.75 1010.39 1010.07 1009.82 1009.61 1009.46 1009.35 1009.28 1009.28 1009.34 1009.48 1009.72 1010.06 1010.49 1011.01 1011.59 1012.20 1012.81 1013.41 1013.96 1014.49 1014.98
1014.67 1014.53 1014.38 1014.20 1014.02 1013.82 1013.61 1013.42 1013.24 1013.09 1012.97 1012.88 1012.80 1012.72 1012.61 1012.46 1012.25 1011.98 1011.68 1011.34 1011.00 1010.67 1010.37 1010.11 1009.89 1009.70 1009.56 1009.44 1009.37 1009.34 1009.37 1009.49 1009.70 1010.00 1010.40 1010.87 1011.40 1011.96 1012.52 1013.06 1013.57 1014.05 1014.50
1014.16 1014.02 1013.86 1013.68 1013.49 1013.29 1013.08 1012.89 1012.71 1012.56 1012.44 1012.34 1012.26 1012.17 1012.07 1011.94 1011.78 1011.57 1011.34 1011.09 1010.84 1010.61 1010.39 1010.20 1010.04 1009.90 1009.77 1009.67 1009.60 1009.57 1009.59 1009.68 1009.87 1010.14 1010.50 1010.93 1011.40 1011.89 1012.38 1012.85 1013.29 1013.71 1014.12
1013.57 1013.42 1013.26 1013.08 1012.89 1012.69 1012.48 1012.29 1012.11 1011.95 1011.82 1011.71 1011.63 1011.55 1011.46 1011.37 1011.26 1011.12 1010.98 1010.83 1010.68 1010.55 1010.42 1010.31 1010.21 1010.12 1010.02 1009.94 1009.88 1009.86 1009.88 1009.97 1010.15 1010.40 1010.73 1011.12 1011.54 1011.96 1012.38 1012.78 1013.15 1013.50 1013.84
1012.95 1012.80 1012.63 1012.46 1012.26 1012.06 1011.86 1011.66 1011.47 1011.31 1011.17 1011.06 1010.98 1010.91 1010.85 1010.80 1010.75 1010.69 1010.63 1010.57 1010.52 1010.47 1010.43 1010.38 1010.33 1010.27 1010.21 1010.16 1010.12 1010.11 1010.15 1010.26 1010.44 1010.69 1011.01 1011.37 1011.75 1012.13 1012.49 1012.83 1013.13 1013.41 1013.70
1012.33 1012.18 1012.01 1011.83 1011.64 1011.44 1011.24 1011.04 1010.85 1010.68 1010.54 1010.43 1010.36 1010.31 1010.29 1010.28 1010.28 1010.29 1010.30 1010.32 1010.33 1010.35 1010.35 1010.34 1010.32 1010.29 1010.25 1010.22 1010.21 1010.23 1010.30 1010.44 1010.66 1010.93 1011.26 1011.62 1011.99 1012.35 1012.68 1012.96 1013.22 1013.46 1013.70
1011.77 1011.60 1011.43 1011.24 1011.05 1010.84 1010.63 1010.43 1010.24 1010.08 1009.95 1009.85 1009.79 1009.77 1009.78 1009.81 1009.86 1009.92 1009.98 1010.04 1010.09 1010.13 1010.15 1010.16 1010.15 1010.12 1010.10 1010.09 1010.10 1010.17 1010.29 1010.48 1010.74 1011.06 1011.43 1011.82 1012.21 1012.57 1012.89 1013.17 1013.41 1013.63 1013.85
1011.25 1011.06 1010.87 1010.68 1010.47 1010.26 1010.04 1009.84 1009.65 1009.49 1009.37 1009.29 1009.26 1009.26 1009.30 1009.37 1009.45 1009.54 1009.62 1009.69 1009.75 1009.79 1009.80 1009.80 1009.78 1009.76 1009.75 1009.76 1009.81 1009.92 1010.10 1010.35 1010.67 1011.06 1011.48 1011.92 1012.35 1012.75 1013.11 1013.42 1013.68 1013.92 1014.14
1010.77 1010.56 1010.34 1010.12 1009.89 1009.66 1009.43 1009.22 1009.04 1008.89 1008.78 1008.72 1008.71 1008.74 1008.81 1008.89 1008.99 1009.08 1009.17 1009.23 1009.28 1009.30 1009.30 1009.28 1009.26 1009.24 1009.24 1009.28 1009.37 1009.53 1009.77 1010.08 1010.47 1010.92 1011.41 1011.91 1012.41 1012.87 1013.29 1013.65 1013.98 1014.27 1014.54
1010.31 1010.05 1009.79 1009.54 1009.28 1009.02 1008.78 1008.56 1008.38 1008.23 1008.14 1008.10 1008.11 1008.15 1008.23 1008.32 1008.42 1008.51 1008.59 1008.64 1008.66 1008.67 1008.65 1008.63 1008.61 1008.60 1008.63 1008.71 1008.85 1009.06 1009.35 1009.73 1010.17 1010.68 1011.23 1011.79 1012.35 1012.88 1013.38 1013.83 1014.24 1014.61 1014.96
1009.81 1009.51 1009.20 1008.90 1008.61 1008.32 1008.06 1007.84 1007.65 1007.51 1007.43 1007.40 1007.42 1007.47 1007.55 1007.64 1007.73 1007.81 1007.86 1007.90 1007.91 1007.91 1007.90 1007.89 1007.89 1007.92 1007.99 1008.12 1008.31 1008.57 1008.91 1009.33 1009.82 1010.36 1010.95 1011.56 1012.17 1012.78 1013.35 1013.90 1014.40 1014.88 1015.32
Thickness
5728 5727 5726 5724 5723 5722 5721 5721 5721 5721 5721 5721 5720 5721 5721 5721 5720 5720 5721 5722 5723 5725 5727 5728 5728 5728 5728 5728 5728 5728 5727 5727 5726 5726 5725 5724 5724 5723 5722 5721 5720 5719 5717
5723 5722 5720 5719 5717 5716 5715 5715 5715 5715 5716 5716 5716 5717 5718 5718 5719 5719 5719 5719 5721 5723 5725 5727 5728 5728 5728 5728 5728 5728 5727 5726 5726 5725 5725 5724 5723 5722 5722 5721 5719 5718 5717
5716 5715 5713 5712 5711 5710 5709 5709 5709 5709 5710 5711 5712 5713 5715 5716 5716 5717 5717 5717 5719 5721 5723 5725 5726 5728 5728 5728 5728 5728 5727 5726 5725 5725 5724 5723 5723 5722 5721 5720 5719 5718 5717
5707 5707 5705 5704 5703 5703 5702 5702 5702 5702 5703 5704 5706 5708 5711 5713 5715 5715 5716 5716 5717 5719 5722 5724 5726 5727 5728 5728 5728 5728 5728 5727 5726 5725 5724 5723 5722 5722 5721 5720 5719 5718 5717
5700 5698 5697 5696 5696 5695 5695 5694 5695 5695 5696 5698 5700 5704 5707 5709 5712 5713 5715 5715 5715 5717 5719 5722 5724 5726 5727 5728 5728 5727 5727 5727 5726 5725 5724 5723 5722 5721 5721 5720 5719 5719 5718
5691 5690 5689 5688 5688 5687 5687 5687 5687 5688 5689 5691 5694 5699 5702 5706 5709 5711 5713 5714 5715 5715 5717 5719 5722 5724 5726 5727 5727 5727 5726 5726 5726 5725 5724 5723 5722 5721 5720 5720 5719 5719 5718
5683 5682 5681 5681 5680 5679 5679 5679 5679 5680 5681 5683 5685 5690 5697 5702 5705 5708 5710 5711 5712 5714 5715 5717 5719 5721 5724 5725 5726 5726 5726 5726 5726 5725 5724 5723 5723 5721 5720 5720 5719 5719 5718
5675 5675 5673 5673 5673 5672 5671 5671 5670 5671 5672 5674 5675 5678 5682 5690 5697 5703 5704 5706 5708 5710 5712 5714 5716 5718 5721 5723 5725 5726 5726 5726 5726 5726 5725 5724 5723 5722 5721 5720 5719 5719 5718
5667 5667 5666 5666 5665 5664 5663 5663 5663 5662 5662 5665 5667 5668 5669 5674 5682 5692 5696 5700 5702 5705 5708 5711 5713 5715 5718 5720 5722 5725 5726 5726 5726 5726 5726 5726 5725 5723 5722 5720 5720 5719 5719
5660 5660 5659 5658 5657 5656 5656 5655 5656 5655 5655 5655 5658 5661 5663 5666 5668 5675 5685 5691 5695 5699 5702 5706 5710 5712 5715 5717 5721 5724 5725 5726 5727 5727 5727 5727 5726 5724 5723 5722 5721 5720 5719
5652 5652 5651 5650 5649 5648 5648 5647 5647 5647 5647 5648 5649 5651 5654 5658 5661 5663 5670 5679 5686 5692 5697 5701 5705 5709 5712 5715 5718 5721 5723 5726 5727 5728 5728 5727 5727 5726 5725 5724 5722 5721 5720
5645 5644 5644 5642 5641 5640 5639 5639 5639 5639 5639 5640 5641 5642 5644 5647 5651 5655 5660 5667 5674 5682 5690 5696 5701 5705 5709 5712 5716 5719 5722 5724 5725 5727 5728 5728 5727 5727 5726 5725 5723 5722 5721
5638 5637 5636 5634 5632 5631 5631 5630 5629 5630 5631 5632 5633 5634 5637 5640 5643 5647 5651 5657 5664 5673 5682 5690 5696 5700 5704 5708 5712 5716 5719 5722 5723 5725 5727 5727 5727 5727 5726 5725 5723 5722 5722
5632 5631 5628 5626 5624 5623 5622 5620 5620 5620 5621 5622 5624 5626 5628 5632 5636 5640 5644 5648 5654 5662 5671 5680 5688 5693 5698 5703 5708 5712 5715 5718 5720 5722 5724 5725 5726 5726 5725 5725 5723 5723 5722
5628 5626 5622 5619 5616 5614 5612 5611 5610 5610 5611 5612 5614 5617 5620 5623 5627 5632 5636 5640 5644 5651 5659 5669 5677 5685 5690 5696 5701 5705 5710 5713 5716 5718 5720 5722 5723 5723 5723 5723 5723 5722 5722
5623 5619 5616 5612 5609 5606 5604 5602 5600 5600 5601 5602 5604 5607 5610 5613 5618 5623 5628 5633 5638 5642 5649 5659 5666 5673 5681 5688 5693 5698 5703 5707 5710 5713 5715 5717 5719 5720 5720 5721 5720 5720 5720
5618 5614 5610 5606 5602 5599 5596 5594 5592 5591 5592 5593 5595 5597 5601 5604 5608 5613 5618 5624 5629 5635 5640 5649 5657 5664 5671 5677 5682 5688 5693 5698 5702 5706 5709 5712 5714 5715 5716 5717 5717 5718 5718
5613 5608 5604 5600 5596 5593 5590 5587 5585 5585 5584 5584 5586 5588 5591 5595 5598 5602 5607 5613 5620 5626 5632 5638 5646 5653 5660 5667 5671 5676 5682 5687 5692 5696 5700 5704 5706 5709 5711 5712 5713 5714 5715
5607 5602 5597 5593 5590 5587 5584 5582 5579 5578 5577 5577 5577 5579 5582 5584 5588 5592 5597 5603 5609 5616 5623 5629 5635 5643 5650 5656 5661 5665 5670 5675 5679 5684 5689 5694 5698 5701 5704 5707 5708 5710 5711
5601 5596 5591 5587 5584 5581 5578 5576 5573 5572 5570 5570 5570 5571 5573 5575 5579 5582 5587 5592 5598 5605 5612 5619 5626 5632 5639 5647 5651 5654 5657 5662 5667 5673 5678 5683 5688 5692 5696 5700 5702 5705 5706
5595 5590 5585 5581 5578 5574 5572 5570 5567 5565 5564 5563 5562 5562 5564 5566 5570 5573 5577 5581 5586 5593 5600 5608 5615 5622 5630 5636 5642 5647 5649 5652 5656 5662 5666 5672 5678 5683 5687 5692 5696 5699 5701
5589 5584 5579 5575 5572 5569 5567 5564 5561 5559 5556 5555 5554 5554 5554 5557 5560 5564 5568 5572 5576 5582 5589 5596 5605 5612 5621 5628 5634 5638 5641 5643 5647 5652 5657 5660 5667 5673 5678 5684 5689 5693 5695
5583 5578 5573 5569 5566 5562 5559 5556 5554 5551 5549 5548 5547 5546 5546 5549 5551 5553 5557 5561 5567 5572 5579 5586 5594 5603 5611 5620 5625 5631 5635 5638 5642 5646 5648 5650 5655 5661 5667 5674 5680 5685 5688
5577 5572 5568 5564 5560 5557 5554 5550 5547 5544 5542 5541 5539 5538 5538 5539 5540 5541 5545 5550 5555 5561 5569 5576 5585 5593 5600 5609 5617 5624 5629 5630 5632 5636 5641 5642 5645 5650 5656 5663 5669 5676 5680
5572 5567 5563 5558 5554 5552 5548 5544 5539 5537 5534 5533 5532 5530 5529 5529 5530 5530 5533 5538 5544 5550 5555 5564 5572 5581 5590 5598 5606 5613 5618 5622 5625 5627 5632 5636 5637 5640 5645 5651 5657 5665 5670
5567 5562 5558 5554 5550 5547 5543 5538 5533 5530 5527 5526 5524 5522 5520 5520 5520 5520 5523 5527 5532 5538 5543 5551 5560 5569 5578 5587 5596 5605 5613 5617 5621 5622 5624 5630 5631 5636 5637 5639 5646 5653 5659